[[{"header":{"parameterUnit":"m.s-1","parameterCategory":1,"la1":30.2991,"la2":30.254,"lo1":-89.0895,"lo2":-89.0444,"dy":0.0017,"dx":0.0017,"nx":28,"ny":28,"refTime":"2023-10-05T03:00:00:Z","depth":0,"parameterNumber":2,"parameterNumberName":"U-component_of_WINDS"},"data":[0,0,0,0,0,0,0,0,0,0,0,0,0,0,0,0,0,0,0,0,0,0,0,0,0,0,0,0,0,0,0,0,0,0,0,0,0,0,0,0,0,0,0,0,0,0,0,0,0,0,0,0,0,0,0,0,0,0,-2.6922,-2.6923,0,-2.698,-2.6981,-2.6981,-2.693,-2.6927,-2.6925,-2.6923,-2.6984,-2.6987,-2.6991,0,0,0,0,0,0,0,0,0,0,0,0,0,-2.6767,-2.677,-2.6922,-2.6923,-2.6923,-2.698,-2.6981,-2.6982,-2.693,-2.6927,-2.6925,-2.6922,-2.6982,-2.6987,-2.6991,0,0,0,0,0,0,0,0,0,0,0,0,0,-2.6831,-2.6771,-2.6922,-2.6904,-2.6903,-2.698,-2.6981,-2.6982,-2.693,-2.6927,-2.6924,-2.6921,-2.6981,-2.6986,-2.6991,-2.7088,0,0,-2.7008,-2.701,0,0,0,0,0,0,0,0,-2.6827,-2.6836,-2.6906,-2.6906,-2.6905,-2.6944,-2.6948,-2.7017,-2.6931,-2.692,-2.6923,-2.692,-2.6973,-2.6979,-2.6997,-2.7091,-2.7093,-2.7008,-2.7012,-2.7014,-2.7015,0,0,0,0,0,0,0,-2.6823,-2.6834,-2.6945,-2.6907,-2.6907,-2.6894,-2.6899,-2.6961,-2.6964,-2.6921,-2.6917,-2.6925,-2.6972,-2.6992,-2.6998,-2.7094,-2.7008,-2.7013,-2.7016,-2.7018,-2.727,-2.7274,0,0,0,0,0,0,-2.682,-2.683,-2.6943,-2.6947,-2.6857,-2.6899,-2.6906,-2.6935,-2.6963,-2.6964,-2.6928,-2.6922,-2.6984,-2.6992,-2.7,-2.7114,-2.7014,-2.7019,-2.7022,-2.7267,-2.7271,-2.7275,0,0,0,0,0,0,-2.6817,-2.6831,-2.6941,-2.6888,-2.6901,-2.6905,-2.6939,-2.6938,-2.6957,-2.6968,-2.6968,-2.6947,-2.6982,-2.6992,-2.7066,-2.7116,-2.7021,-2.7026,-2.7263,-2.7268,-2.7273,-2.7344,0,0,0,0,0,0,-2.6813,-2.683,-2.6867,-2.6889,-2.6904,-2.7006,-2.6942,-2.6941,-2.6967,-2.696,-2.6986,-2.6988,-2.698,-2.7059,-2.7072,-2.7121,-2.703,-2.7258,-2.7265,-2.7271,-2.7338,-2.7351,-2.7363,0,0,0,0,0,-2.6807,-2.6885,-2.6869,-2.6883,-2.695,-2.7009,-2.7018,-2.7008,-2.6971,-2.7008,-2.7014,-2.6987,-2.7108,-2.7067,-2.7081,-2.7133,-2.7255,-2.7263,-2.7271,-2.7332,-2.7349,-2.7363,0,0,0,0,0,0,-2.6868,-2.6887,-2.687,-2.6956,-2.6982,-2.7001,-2.7047,-2.7026,-2.7062,-2.7055,-2.7041,-2.7047,-2.7125,-2.7137,-2.709,-2.7228,-2.7176,-2.7187,-2.7217,-2.7233,-2.7246,-2.7241,-2.7035,0,0,0,0,0,-2.6892,-2.6939,-2.6953,-2.7028,-2.7041,-2.7042,-2.7068,-2.7058,-2.7083,-2.7094,-2.7106,-2.7132,-2.7176,-2.7206,-2.7247,-2.7339,-2.7344,-2.7382,-2.7395,-2.7405,-2.7415,-2.7464,-2.7481,-2.7301,-2.73,-2.73,0,0,-2.6941,-2.6957,-2.6988,-2.7041,-2.7059,-2.7108,-2.7051,-2.7106,-2.7142,-2.7102,-2.7173,-2.7183,-2.7211,-2.7295,-2.7332,-2.7307,-2.7466,-2.7415,-2.7424,-2.7427,-2.7474,-2.7491,-2.7506,-2.7306,-2.7305,-2.7304,0,0,-2.7055,-2.7072,-2.7137,-2.7156,-2.7184,-2.7184,-2.72,-2.7222,-2.7227,-2.7298,-2.7269,-2.7312,-2.7388,-2.7409,-2.743,-2.7552,-2.7528,-2.7566,-2.7633,-2.7681,-2.7695,-2.7708,-2.7751,-2.7767,-2.7576,-2.7576,-2.7576,0,-2.7113,-2.7185,-2.7172,-2.7229,-2.7253,-2.7219,-2.7283,-2.7303,-2.7344,-2.7361,-2.7332,-2.7427,-2.7443,-2.7531,-2.7561,-2.7579,-2.7596,-2.7563,-2.7694,-2.7707,-2.7718,-2.7759,-2.7776,-2.758,-2.758,-2.7579,-2.7579,0,-2.7254,-2.7305,-2.7353,-2.7393,-2.7422,-2.7483,-2.7479,-2.7511,-2.7498,-2.7501,-2.7573,-2.7592,-2.7636,-2.7657,-2.7645,-2.7743,-2.7726,-2.7696,-2.7643,-2.774,-2.7778,-2.7794,-2.7587,-2.7585,-2.7584,-2.7583,0,0,-2.7409,-2.744,-2.7458,-2.7475,-2.7504,-2.7543,-2.7602,-2.7644,-2.7672,-2.7701,-2.775,-2.7815,-2.7787,-2.7811,-2.7801,-2.7844,-2.7939,-2.7808,-2.7808,-2.7831,-2.8048,-2.807,-2.8088,-2.7923,-2.7926,-2.7929,-2.8045,0,-2.7523,-2.7625,-2.7615,-2.7712,-2.7758,-2.7727,-2.7778,-2.7801,-2.7806,-2.7846,-2.7851,-2.7897,-2.7857,-2.7871,-2.7912,-2.7919,-2.7982,-2.791,-2.7968,-2.7971,-2.7962,-2.8109,-2.8132,-2.8242,-2.806,-2.8063,-2.8065,0,-2.7671,-2.7705,-2.7806,-2.7827,-2.7846,-2.7892,-2.7931,-2.7969,-2.7995,-2.7996,-2.8022,-2.8005,-2.8065,-2.8011,-2.8093,-2.8044,-2.8067,-2.8074,-2.8078,-2.8083,-2.8023,-2.8117,-2.8276,-2.8293,-2.8088,-2.8086,-2.8085,0,-2.7773,-2.7844,-2.7913,-2.7929,-2.7956,-2.7989,-2.8002,-2.8024,-2.805,-2.8084,-2.8101,-2.8141,-2.8164,-2.8195,-2.819,-2.8152,-2.8273,-2.8219,-2.8275,-2.8275,-2.8301,-2.83,-2.8466,-2.8317,-2.8317,-2.8317,-2.8317,0,-2.7902,-2.7965,-2.7959,-2.8002,-2.8072,-2.806,-2.8129,-2.8138,-2.8158,-2.8202,-2.8178,-2.822,-2.821,-2.8252,-2.8248,-2.8316,-2.8327,-2.8329,-2.8327,-2.8331,-2.833,-2.8345,-2.8337,-2.8321,-2.832,-2.8319,-2.8319,0,-2.8028,-2.8026,-2.81,-2.8119,-2.8125,-2.8175,-2.8192,-2.8232,-2.8235,-2.8291,-2.8303,-2.8307,-2.8355,-2.8353,-2.8407,-2.8405,-2.8488,-2.8478,-2.8479,-2.8477,-2.8533,-2.8527,-2.8715,-2.8738,-2.8574,-2.8576,-2.8577,0,-2.811,-2.8158,-2.8181,-2.8209,-2.8224,-2.8268,-2.8295,-2.8285,-2.8314,-2.8346,-2.8383,-2.8428,-2.8464,-2.8542,-2.855,-2.8592,-2.8582,-2.8645,-2.8588,-2.859,-2.8582,-2.8579,-2.8584,-2.8656,-2.8657,-2.8659,-2.866,0,-2.8256,-2.8253,-2.8292,-2.8331,-2.8363,-2.8393,-2.842,-2.8444,-2.8438,-2.8471,-2.8519,-2.8547,-2.8602,-2.8648,-2.8688,-2.8701,-2.868,-2.8678,-2.8693,-2.8697,-2.8696,-2.8697,-2.8509,-2.8674,-2.8672,-2.8671,-2.8671,-2.867,-2.8363,-2.8403,-2.8426,-2.847,-2.849,-2.8516,-2.8554,-2.8561,-2.8601,-2.8645,-2.8637,-2.8691,-2.8716,-2.8767,-2.8784,-2.8826,-2.8804,-2.8826,-2.8831,-2.8837,-2.8843,-2.869,-2.8833,-2.8833,-2.8833,-2.8832,-2.8832,0,-2.8507,-2.852,-2.8561,-2.86,-2.8634,-2.8611,-2.864,-2.8671,-2.8718,-2.8743,-2.8778,-2.8834,-2.8878,-2.8889,-2.8931,-2.8963,-2.8955,-2.8975,-2.8972,-2.8975,-2.886,-2.8843,-2.8981,-2.8981,-2.8981,-2.8981,-2.8981,-2.8981,-2.8587,-2.8654,-2.8653,-2.873,-2.8743,-2.8795,-2.8814,-2.8838,-2.8857,-2.892,-2.8956,-2.8963,-2.8982,-2.9025,-2.9065,-2.9067,-2.9084,-2.9108,-2.9106,-2.8998,-2.8984,-2.8969,-2.8953,-2.9111,-2.9112,-2.9217,-2.9218,-2.9219]},{"header":{"parameterUnit":"m.s-1","parameterCategory":1,"la1":30.2991,"la2":30.254,"lo1":-89.0895,"lo2":-89.0444,"dy":0.0017,"dx":0.0017,"nx":28,"ny":28,"refTime":"2023-10-05T03:00:00:Z","depth":0,"parameterNumber":3,"parameterNumberName":"V-component_of_WINDS"},"data":[0,0,0,0,0,0,0,0,0,0,0,0,0,0,0,0,0,0,0,0,0,0,0,0,0,0,0,0,0,0,0,0,0,0,0,0,0,0,0,0,0,0,0,0,0,0,0,0,0,0,0,0,0,0,0,0,0,0,2.4464,2.4464,0,2.4467,2.4467,2.4467,2.4402,2.44,2.4399,2.4397,2.4399,2.44,2.4402,0,0,0,0,0,0,0,0,0,0,0,0,0,2.4401,2.4403,2.4464,2.4464,2.4464,2.4467,2.4467,2.4467,2.4402,2.44,2.4398,2.4396,2.4398,2.44,2.4402,0,0,0,0,0,0,0,0,0,0,0,0,0,2.4419,2.4403,2.4464,2.4432,2.4429,2.4467,2.4467,2.4467,2.4403,2.44,2.4398,2.4395,2.4398,2.44,2.4402,2.447,0,0,2.441,2.4411,0,0,0,0,0,0,0,0,2.4418,2.4421,2.4437,2.4434,2.4431,2.4431,2.4445,2.4468,2.4404,2.4413,2.4397,2.4394,2.4412,2.4413,2.4419,2.447,2.447,2.441,2.4412,2.4413,2.4414,0,0,0,0,0,0,0,2.4417,2.4421,2.4465,2.4437,2.4434,2.4417,2.4417,2.4449,2.4427,2.4412,2.4407,2.4409,2.441,2.4417,2.4419,2.447,2.441,2.4412,2.4414,2.4415,2.4576,2.4579,0,0,0,0,0,0,2.442,2.442,2.4465,2.4465,2.4418,2.4421,2.442,2.4434,2.4426,2.4423,2.4411,2.4406,2.4414,2.4416,2.4418,2.4496,2.4413,2.4415,2.4417,2.4573,2.4577,2.458,0,0,0,0,0,0,2.4419,2.4425,2.4465,2.4441,2.4445,2.4425,2.4441,2.4436,2.4442,2.4425,2.4421,2.4422,2.4412,2.4415,2.4458,2.4495,2.4416,2.4419,2.457,2.4574,2.4578,2.4653,0,0,0,0,0,0,2.4418,2.4425,2.445,2.4442,2.4447,2.4504,2.4443,2.4437,2.4447,2.444,2.4435,2.4432,2.441,2.4454,2.446,2.4497,2.4421,2.4567,2.4572,2.4577,2.4647,2.4659,2.4669,0,0,0,0,0,2.4415,2.4471,2.4452,2.4458,2.4478,2.4507,2.4509,2.4483,2.4451,2.4476,2.4465,2.4432,2.4491,2.4459,2.4465,2.4504,2.4564,2.4571,2.4577,2.4642,2.4657,2.4669,0,0,0,0,0,0,2.4483,2.4469,2.4448,2.4503,2.4507,2.4496,2.4527,2.45,2.4513,2.4506,2.4473,2.4473,2.452,2.4516,2.4482,2.4569,2.4521,2.4529,2.4569,2.4583,2.4594,2.4593,2.4423,0,0,0,0,0,2.4504,2.4529,2.4516,2.4565,2.4568,2.4548,2.4559,2.4539,2.4541,2.4542,2.4534,2.4538,2.4557,2.457,2.4587,2.4647,2.4644,2.4676,2.4688,2.4697,2.4704,2.4734,2.4748,2.46,2.46,2.46,0,0,2.4548,2.4544,2.4561,2.4579,2.4579,2.4605,2.4549,2.4579,2.4597,2.4547,2.4586,2.4581,2.4582,2.4634,2.4656,2.4632,2.4744,2.4705,2.4713,2.4714,2.4742,2.4756,2.4769,2.4605,2.4604,2.4603,0,0,2.4642,2.4641,2.4682,2.4684,2.4686,2.4672,2.4682,2.4676,2.467,2.471,2.4672,2.4694,2.4728,2.473,2.4736,2.4831,2.4801,2.4838,2.4896,2.4927,2.4938,2.4948,2.4982,2.4994,2.4845,2.4845,2.4845,0,2.4696,2.4733,2.4706,2.4739,2.4747,2.4704,2.4744,2.4747,2.4755,2.4761,2.4735,2.4776,2.4774,2.4825,2.4849,2.4855,2.4865,2.4837,2.4939,2.4949,2.4958,2.4989,2.5002,2.4849,2.4849,2.4848,2.4848,0,2.4799,2.4826,2.4859,2.4868,2.488,2.4916,2.4895,2.491,2.489,2.4879,2.492,2.4916,2.4931,2.4942,2.4922,2.4991,2.4975,2.4945,2.4896,2.4977,2.5005,2.5017,2.4856,2.4854,2.4853,2.4852,0,0,2.4933,2.4928,2.494,2.4943,2.4943,2.4962,2.4997,2.5012,2.5026,2.5033,2.506,2.5091,2.5062,2.5069,2.5049,2.5076,2.5151,2.5042,2.5041,2.5061,2.5225,2.5248,2.5262,2.5132,2.5134,2.5136,2.5225,0,2.5023,2.5082,2.5059,2.5119,2.5143,2.5103,2.5133,2.5136,2.5127,2.5145,2.5135,2.5157,2.5118,2.5122,2.5147,2.5137,2.5183,2.513,2.5156,2.5157,2.5155,2.5277,2.53,2.5384,2.5236,2.5238,2.5239,0,2.5135,2.5147,2.521,2.5205,2.5214,2.5242,2.5254,2.5273,2.5275,2.5266,2.5275,2.5249,2.5282,2.5236,2.5281,2.5245,2.5255,2.5251,2.5254,2.5254,2.5202,2.5279,2.5411,2.5423,2.5257,2.5255,2.5254,0,2.5225,2.5257,2.5298,2.5302,2.5298,2.5318,2.5318,2.5318,2.5328,2.5339,2.5346,2.536,2.5368,2.538,2.5359,2.5327,2.5407,2.5358,2.54,2.54,2.5417,2.5416,2.5551,2.5426,2.5426,2.5425,2.5425,0,2.5326,2.5366,2.5338,2.5364,2.5407,2.5381,2.5425,2.5419,2.542,2.5443,2.541,2.5432,2.5404,2.5424,2.5408,2.5447,2.5451,2.5445,2.544,2.5447,2.5448,2.5451,2.5445,2.5429,2.5428,2.5427,2.5427,0,2.5433,2.5416,2.5459,2.5452,2.5451,2.5484,2.5477,2.55,2.549,2.552,2.5525,2.5508,2.553,2.5511,2.5532,2.5521,2.5573,2.556,2.5572,2.5568,2.561,2.5606,2.5751,2.5768,2.5633,2.5635,2.5636,0,2.5498,2.5528,2.5524,2.5538,2.5539,2.5562,2.5573,2.5548,2.5561,2.5567,2.5589,2.5608,2.5622,2.5658,2.5647,2.5663,2.565,2.57,2.5652,2.5658,2.5649,2.5647,2.565,2.5709,2.571,2.5712,2.5713,0,2.5615,2.5605,2.5623,2.5638,2.5652,2.5662,2.567,2.5683,2.5658,2.5674,2.5696,2.5707,2.5729,2.5748,2.576,2.5759,2.5732,2.5728,2.5738,2.5745,2.575,2.5747,2.5597,2.5725,2.5723,2.5723,2.5722,2.5721,2.5702,2.5726,2.5728,2.5748,2.5752,2.576,2.5781,2.5774,2.5792,2.5807,2.5792,2.5819,2.5821,2.5835,2.5837,2.5857,2.5836,2.5851,2.5855,2.5858,2.5864,2.5749,2.586,2.5859,2.5859,2.5859,2.5858,0,2.5816,2.5815,2.5834,2.5846,2.5863,2.5837,2.5844,2.5859,2.5883,2.5888,2.5902,2.5928,2.5946,2.5938,2.5954,2.5972,2.596,2.5977,2.5974,2.5974,2.5882,2.5871,2.5986,2.5986,2.5986,2.5986,2.5986,2.5986,2.5877,2.5917,2.5908,2.5949,2.5948,2.5974,2.598,2.5988,2.5991,2.6021,2.6036,2.6031,2.603,2.6046,2.6062,2.6059,2.6065,2.6087,2.6079,2.5993,2.5981,2.5969,2.5958,2.6089,2.6089,2.6169,2.617,2.617]}]]